Theta_e
305 307 308 307 306 305 301 303 303 305 303 300 302 301 300 299 299 299 299 300 301 300 304 313 315 317 323 325 326 327 330 331 328 328 327 326 329 331 331 334 334 335 335 333 332
306 304 303 306 307 306 305 304 304 303 304 301 303 301 299 299 299 300 305 307 307 303 301 310 314 316 321 324 326 326 329 329 325 324 324 325 327 328 331 333 335 335 335 333 332
306 307 307 304 305 306 306 306 304 304 303 302 302 303 300 299 300 305 309 306 305 307 301 312 313 315 317 321 325 326 328 327 326 325 325 326 326 327 330 332 332 335 334 330 331
306 308 307 307 305 305 305 305 304 302 302 302 303 301 303 301 298 305 307 309 307 304 304 308 308 313 316 320 323 325 325 326 327 326 326 326 326 325 327 330 330 331 334 329 329
309 307 307 305 305 304 304 305 304 301 302 302 304 302 303 302 300 299 300 301 302 304 308 307 308 309 315 318 320 324 324 325 326 325 326 326 326 325 325 327 327 333 333 330 328
308 308 307 305 305 304 303 304 303 301 302 303 303 302 302 303 299 299 300 301 303 308 309 309 310 309 313 316 318 321 323 324 325 326 325 326 326 326 325 326 327 331 331 330 326
307 307 306 305 305 302 303 304 301 301 302 304 301 301 303 299 298 301 305 305 305 305 305 308 307 308 312 314 315 320 323 323 323 324 325 326 327 326 326 326 331 332 333 326 325
306 305 305 305 303 303 303 301 301 302 303 303 300 301 301 297 301 304 305 304 305 306 306 306 306 306 309 312 317 320 323 325 323 323 325 325 327 324 325 327 331 330 327 325 325
304 304 303 302 303 302 300 302 302 302 302 301 301 300 301 300 300 302 301 300 300 300 304 302 306 307 309 314 316 320 321 324 323 324 326 326 328 324 325 327 331 330 328 326 325
302 301 302 301 300 302 302 303 302 302 302 302 301 302 300 300 300 300 300 301 302 301 303 304 308 307 311 313 318 319 321 320 322 319 325 328 328 326 325 328 331 331 330 327 326
302 301 300 301 302 303 302 300 299 298 299 299 299 301 299 301 301 302 303 303 304 305 306 307 307 307 308 311 315 317 319 319 318 318 323 323 323 326 325 329 332 332 330 329 327
301 301 302 303 303 302 300 300 301 301 301 299 299 300 301 301 302 303 303 304 305 305 305 306 306 306 307 311 314 319 320 320 317 318 319 322 323 323 323 325 330 332 331 330 329
302 303 303 303 303 301 302 300 299 300 299 298 300 301 303 303 304 303 304 304 304 304 304 306 305 307 309 312 310 318 318 318 319 317 318 321 324 327 325 326 328 331 331 330 330
302 303 303 302 303 302 302 299 298 300 291 296 299 303 303 303 304 303 303 304 305 307 306 307 306 306 307 312 309 315 315 317 318 320 321 320 328 329 327 326 329 331 332 331 331
303 303 302 302 302 302 301 300 299 301 292 296 299 301 300 301 303 303 303 304 305 305 303 308 308 309 308 311 314 316 315 316 317 318 319 322 326 326 327 327 328 331 331 332 332
302 301 301 300 301 300 298 299 302 292 291 297 298 299 299 302 302 302 302 304 304 305 305 305 310 310 313 314 314 316 317 317 314 317 319 321 327 326 328 326 326 330 330 331 331
300 300 300 300 300 299 298 300 293 291 294 295 299 299 299 301 300 301 302 304 305 308 308 310 310 309 311 316 316 318 318 321 321 319 322 321 325 327 325 325 325 328 330 330 331
300 300 301 300 299 299 300 293 290 286 287 297 299 298 299 299 300 300 301 304 305 306 308 312 313 313 311 315 318 318 316 318 320 324 325 319 324 326 319 323 325 327 331 330 330
299 300 301 300 299 299 300 287 290 288 296 299 297 292 290 296 297 298 300 304 304 304 307 308 313 313 309 310 317 318 321 315 318 317 321 322 318 320 322 323 322 328 331 330 328
299 300 300 299 299 299 292 293 288 294 297 293 292 291 290 293 295 296 300 303 303 302 302 307 313 313 311 310 317 318 317 322 319 323 324 325 323 324 324 326 323 329 330 324 324
300 300 300 299 299 299 289 287 291 296 297 293 290 294 291 295 296 296 300 301 301 300 302 305 310 310 311 311 315 320 320 320 320 321 325 327 322 313 312 324 325 323 319 318 319
299 295 300 298 296 293 286 287 297 296 297 298 297 298 291 294 295 295 300 301 301 300 302 303 308 310 311 310 311 313 318 319 321 322 318 320 323 313 312 321 316 314 312 313 315
300 299 299 298 288 285 290 293 296 296 297 298 298 297 294 295 295 290 297 300 300 299 301 304 308 307 310 313 313 314 313 318 316 315 318 322 322 314 316 315 313 311 310 311 312
299 290 297 297 295 293 294 291 293 296 297 298 298 299 295 291 295 297 299 299 299 299 301 304 308 310 312 312 311 316 316 317 318 318 319 317 315 316 314 312 310 308 309 309 311
299 292 292 285 289 294 294 294 295 294 298 298 297 294 297 297 292 297 297 298 298 298 298 301 307 308 308 309 310 312 314 316 320 318 318 316 312 316 314 311 308 307 308 308 310
298 296 292 293 294 294 295 295 297 298 298 295 293 296 299 298 294 298 298 298 298 297 297 298 304 305 307 307 309 311 310 313 317 318 317 311 311 308 309 309 307 307 308 308 307
296 297 296 292 293 290 294 296 297 296 296 297 298 297 298 295 296 297 297 297 297 296 296 298 301 306 304 306 307 308 308 311 316 316 317 313 308 310 310 309 307 307 308 309 309
Wind_Speed
11 12 13 13 11 11 12 13 14 15 15 14 15 17 18 18 19 20 23 19 20 16 19 21 16 13 12 13 14 12 5 13 11 8 3 1 2 5 4 7 7 9 6 8 33
13 13 13 13 13 12 13 13 12 13 14 15 14 16 17 19 21 26 14 10 12 17 18 16 19 12 10 9 12 9 10 19 5 12 4 4 5 11 4 5 10 6 9 12 35
13 13 14 12 14 13 13 14 13 14 15 15 15 16 18 19 23 2 5 6 11 9 18 16 13 14 12 16 13 9 14 11 12 20 13 4 9 8 7 4 12 13 12 30 40
13 13 12 12 13 13 14 13 13 14 15 15 14 15 16 15 6 0 9 10 13 9 8 17 16 8 5 11 20 12 12 20 15 16 7 8 6 4 13 11 18 16 12 37 44
11 9 11 10 11 12 13 13 13 13 13 13 12 13 14 8 23 14 12 13 14 10 10 11 17 17 13 7 15 20 12 19 25 24 16 16 14 10 13 20 10 19 24 38 40
6 6 9 8 10 11 11 11 11 11 12 12 12 12 13 12 11 12 15 15 12 8 8 8 8 19 17 17 15 10 23 24 16 23 19 19 15 15 16 23 21 27 18 45 43
6 5 7 8 10 10 9 9 10 10 11 11 13 13 15 33 16 13 12 12 11 13 15 16 14 11 10 11 23 18 16 12 18 12 9 19 17 24 26 22 19 33 36 40 42
8 8 7 7 8 7 8 8 8 9 11 13 14 13 13 21 10 11 9 14 15 14 16 17 18 18 11 16 14 11 7 14 11 12 10 14 25 19 34 24 20 25 35 38 41
9 7 6 6 6 7 7 7 8 11 13 14 14 10 15 7 12 14 25 28 25 23 22 20 17 17 11 13 13 12 4 13 9 13 7 20 14 16 29 28 23 27 33 38 36
8 7 7 6 6 7 8 10 12 14 11 9 10 8 10 12 28 28 25 17 17 14 15 14 10 6 9 14 14 12 12 5 9 5 11 15 17 7 20 29 27 27 26 32 38
8 8 7 6 7 8 11 10 7 4 6 11 17 16 30 22 25 23 24 13 10 8 5 7 6 15 25 19 20 12 11 15 8 5 5 14 13 16 21 21 21 26 29 30 37
7 7 6 5 7 9 11 8 6 8 13 20 17 20 20 21 14 25 15 5 5 7 4 6 15 21 15 18 21 12 13 10 3 6 3 9 18 20 24 12 21 27 27 35 28
7 6 5 6 8 9 10 12 10 9 6 12 8 14 12 12 11 26 13 9 7 12 13 15 15 11 16 20 22 20 17 12 4 1 9 3 11 16 22 13 24 28 39 37 37
6 5 7 9 4 9 7 12 11 10 4 6 5 4 10 14 8 19 20 10 4 7 12 13 14 16 21 17 14 14 13 8 8 3 5 10 5 15 22 20 14 23 20 31 34
5 6 9 9 7 8 10 12 12 4 4 5 6 8 18 6 16 4 17 13 9 9 4 6 8 15 21 19 18 6 20 10 4 4 1 7 5 3 22 21 15 16 33 30 35
7 8 9 9 8 7 11 11 5 5 6 7 6 8 10 5 5 10 8 9 10 5 8 12 11 6 4 16 16 14 10 6 3 2 4 10 12 7 18 33 21 15 28 32 31
8 10 10 9 7 9 11 6 5 4 5 8 5 8 11 5 7 5 6 6 4 7 4 3 1 2 9 13 13 8 6 3 3 2 5 2 10 4 11 26 23 12 23 27 30
10 10 10 10 10 10 10 5 5 3 6 5 6 12 4 8 3 8 9 7 3 11 6 5 1 3 2 2 7 10 5 4 4 1 3 2 6 3 7 22 31 21 26 27 31
11 12 10 9 9 9 4 4 6 5 4 6 10 5 6 5 2 7 5 6 5 11 6 5 3 2 6 5 7 7 4 4 6 2 3 3 2 6 7 15 14 18 22 27 32
14 15 10 8 10 7 4 3 2 4 4 4 1 2 4 7 8 7 5 4 11 12 11 4 5 7 2 7 2 3 9 5 2 3 3 3 2 1 2 11 16 14 20 24 32
13 7 3 10 8 2 3 5 4 3 2 2 3 5 5 5 4 3 7 7 12 15 11 6 4 4 1 4 3 3 3 4 3 3 2 2 1 4 8 5 16 11 18 27 32
7 3 5 8 3 2 1 4 2 3 1 2 2 4 3 4 5 3 3 6 20 17 10 4 5 4 3 7 5 4 4 3 2 3 1 1 1 7 4 5 15 16 18 21 27
7 6 5 8 2 3 5 3 3 2 2 3 3 2 1 4 5 2 4 11 18 10 12 7 4 5 4 4 4 5 5 3 2 1 2 2 1 6 7 10 14 18 20 23 25
4 3 4 5 4 3 1 4 4 4 3 1 4 6 2 3 3 6 11 5 26 11 18 6 3 4 4 3 4 4 6 5 2 2 3 4 3 4 5 9 9 13 18 21 24
2 2 1 3 4 3 1 3 3 4 2 0 3 0 3 3 5 4 6 14 12 15 13 7 6 8 7 4 3 4 8 9 5 3 4 2 3 2 2 6 7 13 17 19 19
2 1 2 3 3 4 2 2 2 4 2 2 2 4 3 3 4 9 10 7 3 12 10 9 3 5 4 9 8 4 7 4 4 4 3 4 5 4 9 12 11 13 17 17 17
1 2 3 0 1 1 2 2 2 5 4 3 2 5 5 5 5 12 13 14 10 7 9 7 8 5 4 6 8 4 6 5 2 4 4 6 4 2 4 6 9 14 14 16 15
Wind_Direction
294 298 305 311 310 309 298 295 303 308 313 313 315 317 318 316 308 300 293 295 282 278 256 256 261 268 266 242 212 191 220 228 210 196 186 343 293 262 192 145 169 200 249 260 178
308 299 292 287 295 300 298 300 299 298 302 308 308 314 315 314 312 304 303 315 283 262 243 262 261 276 266 234 217 204 223 226 209 225 208 287 314 294 226 182 199 221 233 215 176
297 292 299 293 287 293 291 292 296 294 302 305 305 311 315 319 317 170 74 43 13 340 236 238 255 276 261 252 202 214 238 223 211 235 240 248 295 302 233 249 223 215 201 186 176
302 292 282 288 287 285 288 290 294 293 294 293 298 309 310 314 294 350 288 287 289 298 259 246 252 259 240 242 241 243 226 231 219 224 228 249 276 271 255 233 264 235 224 187 181
301 305 289 286 291 291 292 290 296 292 288 291 295 306 303 284 271 306 289 296 284 274 242 235 244 254 250 272 258 248 239 223 228 231 229 240 250 258 279 279 247 203 211 202 194
299 295 295 300 298 301 297 296 296 290 289 293 298 298 294 265 308 313 300 295 288 262 257 255 256 247 275 265 258 269 235 244 234 225 234 238 249 254 253 278 254 205 208 206 199
10 337 330 322 313 308 305 300 298 292 292 293 302 297 280 272 304 288 291 294 293 261 268 256 264 265 283 261 259 265 237 237 226 221 221 230 247 239 244 261 215 195 195 193 199
11 6 352 332 323 319 315 305 299 297 294 296 299 293 266 303 285 290 307 302 290 285 281 280 271 269 251 274 279 228 226 213 199 197 211 183 248 236 237 234 214 195 185 192 200
18 13 3 353 341 336 323 313 306 294 292 295 290 289 273 304 304 300 299 304 295 277 272 277 256 247 266 259 248 216 227 221 186 191 180 201 245 236 229 220 205 194 193 192 201
26 21 15 12 3 352 338 327 310 297 292 289 270 294 265 302 306 306 310 303 296 287 277 244 226 217 231 233 229 213 218 185 211 197 210 227 225 266 220 206 206 194 196 193 202
22 21 25 20 12 357 345 350 344 311 296 260 270 261 285 308 308 312 327 300 290 254 211 203 222 226 229 253 251 234 216 214 185 209 207 229 247 243 255 214 191 190 194 199 206
21 18 18 17 11 3 5 28 18 315 303 298 282 273 289 305 291 308 321 273 227 240 218 239 237 240 242 249 257 185 192 190 252 207 190 253 244 233 231 241 207 186 185 205 196
14 22 7 347 0 10 6 6 341 325 278 298 283 284 303 298 282 295 292 263 239 259 244 232 236 208 264 240 256 210 215 212 201 305 224 298 278 230 221 234 233 201 197 195 191
4 8 354 352 356 357 346 342 334 326 38 283 326 297 313 313 276 313 298 270 267 288 255 228 230 230 261 232 228 169 193 174 180 182 222 152 280 212 204 215 236 202 189 194 192
353 343 337 345 343 348 327 325 327 329 358 276 294 305 315 274 297 341 312 282 248 264 181 292 245 237 233 210 218 183 171 152 151 199 337 204 238 264 192 202 225 191 198 198 190
344 339 335 334 332 340 335 332 339 41 265 321 313 324 337 286 287 286 301 285 251 238 217 245 248 236 248 194 191 128 113 138 122 153 233 197 197 209 194 201 216 199 186 188 183
342 332 330 340 345 330 336 338 32 124 330 310 325 335 321 298 310 338 315 351 343 315 347 265 219 213 261 151 163 154 147 171 166 152 246 198 186 287 233 189 203 194 192 185 178
329 322 310 324 327 332 334 54 87 236 256 316 322 314 291 0 311 327 329 350 21 339 302 326 346 222 19 293 169 154 172 156 140 211 311 317 204 237 307 196 182 188 184 180 179
325 318 300 313 319 323 313 54 202 204 274 326 320 358 317 347 5 349 347 315 348 357 320 321 265 153 71 280 159 164 151 170 80 236 255 226 266 277 304 170 140 141 160 168 175
321 312 287 306 316 312 75 245 211 223 324 45 69 112 308 315 356 3 316 323 347 341 341 290 293 7 326 343 89 173 164 103 116 242 238 210 128 274 40 156 150 155 165 152 165
324 302 267 320 317 298 138 227 263 271 295 130 208 298 270 305 316 305 306 307 7 335 335 310 303 328 21 14 3 128 117 95 158 220 269 170 55 233 296 150 159 133 139 154 164
319 321 306 328 13 46 132 209 279 298 4 303 209 287 232 309 301 297 310 289 341 335 340 294 313 323 315 313 316 13 58 82 153 266 183 255 62 335 265 113 112 115 134 148 166
312 279 325 341 81 328 314 302 285 318 2 341 286 188 218 310 314 249 321 297 329 337 343 336 331 324 12 2 10 47 0 311 103 352 341 6 35 8 96 90 112 125 134 151 166
329 349 15 43 59 150 292 290 317 307 268 271 286 314 10 320 255 302 321 306 324 346 348 320 294 355 8 324 316 14 342 15 78 55 348 49 349 40 85 111 116 119 137 154 161
332 43 35 310 332 327 330 184 290 322 236 101 325 93 298 295 314 302 323 324 318 8 357 13 349 340 300 312 325 338 3 1 28 44 37 13 101 359 110 120 114 132 145 146 149
348 174 244 270 275 298 332 322 297 332 294 284 163 290 298 282 223 313 333 348 337 332 345 349 338 322 305 356 359 349 324 348 38 11 35 100 62 16 79 116 120 144 151 155 161
275 261 266 177 234 56 247 289 353 342 281 227 79 344 293 264 269 286 287 284 279 322 325 332 341 347 311 330 333 35 346 322 64 76 8 31 340 73 92 106 145 161 170 173 177